Time,TemperatureF,DewpointF,PressureIn,WindDirection,WindDirectionDegrees,WindSpeedMPH,WindSpeedGustMPH,Humidity,HourlyPrecipIn,Conditions,Clouds,dailyrainin,SoftwareType,DateUTC
2013-07-05 00:00:00,58.7,52.6,29.59,NW,315,0.4,0.4,80,0.00,,,0.00,WUHU216HW,2013-07-05 07:00:00,
2013-07-05 00:05:00,58.7,52.9,29.59,WNW,293,0.4,0.7,81,0.00,,,0.00,WUHU216HW,2013-07-05 07:05:00,
2013-07-05 00:10:00,58.7,52.9,29.59,WNW,293,0.4,0.7,81,0.00,,,0.00,WUHU216HW,2013-07-05 07:10:00,
2013-07-05 00:30:00,58.7,52.6,29.58,NW,315,0.2,0.2,80,0.00,,,0.00,WUHU216HW,2013-07-05 07:30:00,
2013-07-05 00:35:00,58.7,52.6,29.58,NW,315,0.0,0.2,80,0.00,,,0.00,WUHU216HW,2013-07-05 07:35:00,
2013-07-05 00:40:00,58.7,52.6,29.58,NW,315,0.0,0.0,80,0.00,,,0.00,WUHU216HW,2013-07-05 07:40:00,
2013-07-05 01:00:00,58.5,52.4,29.59,SW,225,0.7,0.7,80,0.00,,,0.00,WUHU216HW,2013-07-05 08:00:00,
2013-07-05 01:05:00,58.5,52.4,29.59,South,180,0.4,0.7,80,0.00,,,0.00,WUHU216HW,2013-07-05 08:05:00,
2013-07-05 01:10:00,58.5,52.4,29.59,South,180,0.4,0.7,80,0.00,,,0.00,WUHU216HW,2013-07-05 08:10:00,
2013-07-05 01:30:00,57.8,52.0,29.58,SSE,158,0.4,0.4,81,0.00,,,0.00,WUHU216HW,2013-07-05 08:30:00,
2013-07-05 01:35:00,57.8,52.0,29.58,SSE,158,0.4,0.4,81,0.00,,,0.00,WUHU216HW,2013-07-05 08:35:00,
2013-07-05 01:40:00,57.8,52.0,29.58,SSE,158,0.4,0.4,81,0.00,,,0.00,WUHU216HW,2013-07-05 08:40:00,
2013-07-05 02:00:00,57.2,51.8,29.58,SSE,158,2.5,2.5,82,0.00,,,0.00,WUHU216HW,2013-07-05 09:00:00,
2013-07-05 02:05:00,57.2,51.8,29.58,South,180,2.2,2.5,82,0.00,,,0.00,WUHU216HW,2013-07-05 09:05:00,
2013-07-05 02:10:00,57.2,51.8,29.58,South,180,2.2,2.5,82,0.00,,,0.00,WUHU216HW,2013-07-05 09:10:00,
2013-07-05 02:30:00,57.1,51.9,29.59,SSW,203,0.4,0.4,83,0.00,,,0.00,WUHU216HW,2013-07-05 09:30:00,
2013-07-05 02:35:00,57.1,51.9,29.59,SSW,203,0.4,0.4,83,0.00,,,0.00,WUHU216HW,2013-07-05 09:35:00,
2013-07-05 03:00:00,56.7,52.2,29.59,SSE,158,1.1,1.1,85,0.00,,,0.00,WUHU216HW,2013-07-05 10:00:00,
2013-07-05 03:05:00,56.7,51.8,29.59,SSE,158,1.6,1.6,84,0.00,,,0.00,WUHU216HW,2013-07-05 10:05:00,
2013-07-05 03:10:00,56.7,51.8,29.59,SSE,158,1.6,1.6,84,0.00,,,0.00,WUHU216HW,2013-07-05 10:10:00,
2013-07-05 03:30:00,56.5,51.7,29.59,SSE,158,1.1,1.1,84,0.00,,,0.00,WUHU216HW,2013-07-05 10:30:00,
2013-07-05 03:35:00,56.5,51.7,29.59,South,180,0.9,1.1,84,0.00,,,0.00,WUHU216HW,2013-07-05 10:35:00,
2013-07-05 03:40:00,56.5,51.7,29.59,South,180,0.9,1.1,84,0.00,,,0.00,WUHU216HW,2013-07-05 10:40:00,
2013-07-05 04:00:00,55.8,50.9,29.59,SSE,158,1.8,1.8,84,0.00,,,0.00,WUHU216HW,2013-07-05 11:00:00,
2013-07-05 04:05:00,55.8,50.9,29.59,SE,135,1.3,1.8,84,0.00,,,0.00,WUHU216HW,2013-07-05 11:05:00,
2013-07-05 04:30:00,55.3,50.8,29.59,SSE,158,3.6,3.6,85,0.00,,,0.00,WUHU216HW,2013-07-05 11:30:00,
2013-07-05 04:35:00,55.3,50.8,29.59,SSE,158,3.6,3.6,85,0.00,,,0.00,WUHU216HW,2013-07-05 11:35:00,
2013-07-05 04:40:00,55.3,50.8,29.59,SSE,158,3.6,3.6,85,0.00,,,0.00,WUHU216HW,2013-07-05 11:40:00,
2013-07-05 05:00:00,55.3,51.1,29.60,SSE,158,4.3,4.3,86,0.00,,,0.00,WUHU216HW,2013-07-05 12:00:00,
2013-07-05 05:05:00,55.3,51.1,29.60,South,180,3.4,4.3,86,0.00,,,0.00,WUHU216HW,2013-07-05 12:05:00,
2013-07-05 05:10:00,55.3,51.1,29.60,South,180,3.4,3.4,86,0.00,,,0.00,WUHU216HW,2013-07-05 12:10:00,
2013-07-05 05:30:00,56.2,52.7,29.60,South,180,7.2,7.2,88,0.00,,,0.00,WUHU216HW,2013-07-05 12:30:00,
2013-07-05 05:35:00,56.2,52.7,29.60,SSW,203,8.5,8.9,88,0.00,,,0.00,WUHU216HW,2013-07-05 12:35:00,
2013-07-05 05:40:00,56.2,52.7,29.60,SSW,203,8.5,8.9,88,0.00,,,0.00,WUHU216HW,2013-07-05 12:40:00,
2013-07-05 06:00:00,57.1,52.9,29.61,South,180,6.3,6.3,86,0.00,,,0.00,WUHU216HW,2013-07-05 13:00:00,
2013-07-05 06:05:00,57.1,52.9,29.61,South,180,4.3,6.3,86,0.00,,,0.00,WUHU216HW,2013-07-05 13:05:00,
2013-07-05 06:10:00,57.1,52.9,29.61,South,180,4.3,6.3,86,0.00,,,0.00,WUHU216HW,2013-07-05 13:10:00,
2013-07-05 06:30:00,58.7,54.6,29.62,SSW,203,2.2,2.2,86,0.00,,,0.00,WUHU216HW,2013-07-05 13:30:00,
2013-07-05 06:35:00,58.7,54.6,29.62,SE,135,1.1,2.2,86,0.00,,,0.00,WUHU216HW,2013-07-05 13:35:00,
2013-07-05 06:40:00,58.7,54.6,29.62,SE,135,1.1,2.2,86,0.00,,,0.00,WUHU216HW,2013-07-05 13:40:00,
2013-07-05 07:00:00,59.4,53.9,29.62,SSW,203,5.1,5.1,82,0.00,,,0.00,WUHU216HW,2013-07-05 14:00:00,
2013-07-05 07:05:00,59.4,54.3,29.62,SSW,203,5.1,5.1,83,0.00,,,0.00,WUHU216HW,2013-07-05 14:05:00,
2013-07-05 07:10:00,59.4,54.3,29.62,SSW,203,5.1,5.1,83,0.00,,,0.00,WUHU216HW,2013-07-05 14:10:00,
2013-07-05 07:30:00,58.9,54.0,29.62,SW,225,5.1,5.1,84,0.00,,,0.00,WUHU216HW,2013-07-05 14:30:00,
2013-07-05 07:35:00,58.9,54.0,29.62,South,180,4.0,5.1,84,0.00,,,0.00,WUHU216HW,2013-07-05 14:35:00,
2013-07-05 07:40:00,58.9,54.0,29.62,South,180,4.0,5.1,84,0.00,,,0.00,WUHU216HW,2013-07-05 14:40:00,
2013-07-05 08:01:00,60.3,54.6,29.63,WSW,248,0.7,0.7,81,0.00,,,0.00,WUHU216HW,2013-07-05 15:01:00,
2013-07-05 08:07:00,60.3,54.6,29.63,SSW,203,4.0,6.3,81,0.00,,,0.00,WUHU216HW,2013-07-05 15:07:00,
2013-07-05 08:12:00,60.5,54.7,29.63,South,180,7.2,8.3,81,0.00,,,0.00,WUHU216HW,2013-07-05 15:12:00,
2013-07-05 08:17:00,60.5,54.7,29.64,SW,225,4.5,8.3,81,0.00,,,0.00,WUHU216HW,2013-07-05 15:17:00,
2013-07-05 08:22:00,60.7,54.9,29.64,SW,225,6.9,8.5,81,0.00,,,0.00,WUHU216HW,2013-07-05 15:22:00,
2013-07-05 08:27:00,60.7,54.9,29.64,South,180,6.9,8.5,81,0.00,,,0.00,WUHU216HW,2013-07-05 15:27:00,
2013-07-05 08:32:00,60.7,54.9,29.64,South,180,6.9,7.2,81,0.00,,,0.00,WUHU216HW,2013-07-05 15:32:00,
2013-07-05 08:55:00,61.6,55.0,29.65,SSW,203,7.6,7.6,79,0.00,,,0.00,WUHU216HW,2013-07-05 15:55:00,
2013-07-05 09:00:00,61.6,55.0,29.65,SSW,203,6.3,7.6,79,0.00,,,0.00,WUHU216HW,2013-07-05 16:00:00,
2013-07-05 09:05:00,61.6,55.0,29.65,SSW,203,6.3,7.6,79,0.00,,,0.00,WUHU216HW,2013-07-05 16:05:00,
2013-07-05 09:30:00,62.3,54.9,29.65,WSW,248,5.8,5.8,77,0.00,,,0.00,WUHU216HW,2013-07-05 16:30:00,
2013-07-05 09:35:00,62.3,54.9,29.65,WSW,248,4.7,5.8,77,0.00,,,0.00,WUHU216HW,2013-07-05 16:35:00,
2013-07-05 09:40:00,62.3,54.9,29.65,WSW,248,4.7,5.8,77,0.00,,,0.00,WUHU216HW,2013-07-05 16:40:00,
2013-07-05 10:00:00,62.6,54.5,29.65,SSE,158,4.7,4.7,75,0.00,,,0.00,WUHU216HW,2013-07-05 17:00:00,
2013-07-05 10:05:00,62.6,54.5,29.65,SSE,158,4.7,4.7,75,0.00,,,0.00,WUHU216HW,2013-07-05 17:05:00,
2013-07-05 10:10:00,62.6,54.5,29.65,SSE,158,4.7,4.7,75,0.00,,,0.00,WUHU216HW,2013-07-05 17:10:00,
2013-07-05 10:30:00,63.7,55.6,29.65,SW,225,7.6,7.6,75,0.00,,,0.00,WUHU216HW,2013-07-05 17:30:00,
2013-07-05 10:35:00,63.7,55.6,29.65,WSW,248,3.4,7.6,75,0.00,,,0.00,WUHU216HW,2013-07-05 17:35:00,
2013-07-05 10:40:00,63.7,55.6,29.65,WSW,248,3.4,7.6,75,0.00,,,0.00,WUHU216HW,2013-07-05 17:40:00,
2013-07-05 11:00:00,64.6,56.2,29.65,WSW,248,7.2,7.2,74,0.00,,,0.00,WUHU216HW,2013-07-05 18:00:00,
2013-07-05 11:05:00,64.6,56.2,29.65,SSW,203,3.4,7.2,74,0.00,,,0.00,WUHU216HW,2013-07-05 18:05:00,
2013-07-05 11:10:00,64.6,56.2,29.65,SSW,203,3.4,7.2,74,0.00,,,0.00,WUHU216HW,2013-07-05 18:10:00,
2013-07-05 11:30:00,64.8,56.0,29.66,WSW,248,1.1,1.1,73,0.00,,,0.00,WUHU216HW,2013-07-05 18:30:00,
2013-07-05 11:35:00,64.8,56.0,29.66,South,180,1.8,1.8,73,0.00,,,0.00,WUHU216HW,2013-07-05 18:35:00,
2013-07-05 11:40:00,64.8,56.0,29.66,South,180,1.8,1.8,73,0.00,,,0.00,WUHU216HW,2013-07-05 18:40:00,
2013-07-05 12:00:00,65.7,55.7,29.65,West,270,4.5,4.5,70,0.00,,,0.00,WUHU216HW,2013-07-05 19:00:00,
2013-07-05 12:05:00,65.7,55.7,29.65,SW,225,5.6,5.6,70,0.00,,,0.00,WUHU216HW,2013-07-05 19:05:00,
2013-07-05 12:10:00,65.7,55.7,29.65,SW,225,5.6,5.6,70,0.00,,,0.00,WUHU216HW,2013-07-05 19:10:00,
2013-07-05 12:30:00,67.0,56.4,29.64,North,0,1.1,1.1,69,0.00,,,0.00,WUHU216HW,2013-07-05 19:30:00,
2013-07-05 12:35:00,67.0,56.4,29.64,North,0,1.1,1.1,69,0.00,,,0.00,WUHU216HW,2013-07-05 19:35:00,
2013-07-05 12:40:00,67.0,56.4,29.64,North,0,1.1,1.1,69,0.00,,,0.00,WUHU216HW,2013-07-05 19:40:00,
2013-07-05 13:00:00,66.8,55.9,29.65,WNW,293,2.5,2.5,68,0.00,,,0.00,WUHU216HW,2013-07-05 20:00:00,
2013-07-05 13:05:00,66.8,55.9,29.65,WNW,293,2.5,2.5,68,0.00,,,0.00,WUHU216HW,2013-07-05 20:05:00,
2013-07-05 13:10:00,66.8,55.9,29.65,WNW,293,2.5,2.5,68,0.00,,,0.00,WUHU216HW,2013-07-05 20:10:00,
2013-07-05 13:30:00,67.1,55.8,29.64,WNW,293,5.8,5.8,67,0.00,,,0.00,WUHU216HW,2013-07-05 20:30:00,
2013-07-05 13:35:00,67.1,55.8,29.64,West,270,5.8,5.8,67,0.00,,,0.00,WUHU216HW,2013-07-05 20:35:00,
2013-07-05 13:40:00,67.1,55.8,29.64,West,270,5.8,5.8,67,0.00,,,0.00,WUHU216HW,2013-07-05 20:40:00,
2013-07-05 14:00:00,67.0,55.6,29.63,NW,315,4.7,4.7,67,0.00,,,0.00,WUHU216HW,2013-07-05 21:00:00,
2013-07-05 14:05:00,67.0,55.6,29.63,West,270,3.4,4.7,67,0.00,,,0.00,WUHU216HW,2013-07-05 21:05:00,
2013-07-05 14:30:00,67.5,56.6,29.63,SW,225,3.8,3.8,68,0.00,,,0.00,WUHU216HW,2013-07-05 21:30:00,
2013-07-05 14:35:00,67.5,56.6,29.63,WNW,293,1.6,3.8,68,0.00,,,0.00,WUHU216HW,2013-07-05 21:35:00,
2013-07-05 14:40:00,67.5,56.6,29.63,WNW,293,1.6,1.6,68,0.00,,,0.00,WUHU216HW,2013-07-05 21:40:00,
2013-07-05 15:00:00,67.5,56.2,29.62,West,270,5.8,5.8,67,0.00,,,0.00,WUHU216HW,2013-07-05 22:00:00,
2013-07-05 15:05:00,67.5,56.2,29.62,West,270,4.7,5.8,67,0.00,,,0.00,WUHU216HW,2013-07-05 22:05:00,
2013-07-05 15:10:00,67.5,56.2,29.62,West,270,4.7,5.8,67,0.00,,,0.00,WUHU216HW,2013-07-05 22:10:00,
2013-07-05 15:30:00,67.0,55.6,29.62,WNW,293,2.9,2.9,67,0.00,,,0.00,WUHU216HW,2013-07-05 22:30:00,
2013-07-05 15:35:00,67.0,55.6,29.62,WNW,293,2.9,2.9,67,0.00,,,0.00,WUHU216HW,2013-07-05 22:35:00,
2013-07-05 15:40:00,67.0,55.6,29.62,WNW,293,2.9,2.9,67,0.00,,,0.00,WUHU216HW,2013-07-05 22:40:00,
2013-07-05 16:00:00,67.3,55.5,29.61,West,270,1.1,1.1,66,0.00,,,0.00,WUHU216HW,2013-07-05 23:00:00,
2013-07-05 16:05:00,67.5,55.7,29.61,West,270,3.4,3.4,66,0.00,,,0.00,WUHU216HW,2013-07-05 23:05:00,
2013-07-05 16:10:00,67.5,55.7,29.61,West,270,3.4,3.4,66,0.00,,,0.00,WUHU216HW,2013-07-05 23:10:00,
2013-07-05 16:30:00,67.3,55.5,29.61,WSW,248,8.9,8.9,66,0.00,,,0.00,WUHU216HW,2013-07-05 23:30:00,
2013-07-05 16:35:00,67.3,55.5,29.61,WNW,293,7.6,8.9,66,0.00,,,0.00,WUHU216HW,2013-07-05 23:35:00,
2013-07-05 16:40:00,67.3,55.5,29.61,WNW,293,7.6,8.9,66,0.00,,,0.00,WUHU216HW,2013-07-05 23:40:00,
2013-07-05 17:00:00,67.5,55.7,29.61,South,180,4.7,4.7,66,0.00,,,0.00,WUHU216HW,2013-07-06 00:00:00,
2013-07-05 17:05:00,67.5,55.7,29.61,South,180,4.3,4.7,66,0.00,,,0.00,WUHU216HW,2013-07-06 00:05:00,
2013-07-05 17:10:00,67.5,55.7,29.61,South,180,4.3,4.3,66,0.00,,,0.00,WUHU216HW,2013-07-06 00:10:00,
2013-07-05 17:30:00,65.3,54.6,29.61,WSW,248,6.9,6.9,68,0.00,,,0.00,WUHU216HW,2013-07-06 00:30:00,
2013-07-05 17:35:00,65.5,54.3,29.61,WNW,293,8.1,8.1,67,0.00,,,0.00,WUHU216HW,2013-07-06 00:35:00,
2013-07-05 17:40:00,65.5,54.3,29.61,WNW,293,8.1,8.1,67,0.00,,,0.00,WUHU216HW,2013-07-06 00:40:00,
2013-07-05 18:00:00,64.4,54.5,29.60,WSW,248,4.7,4.7,70,0.00,,,0.00,WUHU216HW,2013-07-06 01:00:00,
2013-07-05 18:05:00,64.4,54.5,29.60,West,270,4.0,4.7,70,0.00,,,0.00,WUHU216HW,2013-07-06 01:05:00,
2013-07-05 18:10:00,64.4,54.5,29.60,West,270,4.0,4.7,70,0.00,,,0.00,WUHU216HW,2013-07-06 01:10:00,
2013-07-05 18:30:00,64.1,54.2,29.61,West,270,3.1,3.1,70,0.00,,,0.00,WUHU216HW,2013-07-06 01:30:00,
2013-07-05 18:35:00,64.1,54.2,29.61,West,270,3.1,3.1,70,0.00,,,0.00,WUHU216HW,2013-07-06 01:35:00,
2013-07-05 18:40:00,64.1,54.2,29.61,West,270,3.1,3.1,70,0.00,,,0.00,WUHU216HW,2013-07-06 01:40:00,
2013-07-05 19:00:00,62.8,53.6,29.61,SW,225,5.4,5.4,72,0.00,,,0.00,WUHU216HW,2013-07-06 02:00:00,
2013-07-05 19:05:00,62.6,53.1,29.61,WSW,248,5.8,5.8,71,0.00,,,0.00,WUHU216HW,2013-07-06 02:05:00,
2013-07-05 19:10:00,62.6,53.1,29.61,WSW,248,5.8,5.8,71,0.00,,,0.00,WUHU216HW,2013-07-06 02:10:00,
2013-07-05 19:30:00,62.5,53.3,29.61,West,270,7.2,7.2,72,0.00,,,0.00,WUHU216HW,2013-07-06 02:30:00,
2013-07-05 19:35:00,62.5,53.3,29.61,West,270,5.4,7.2,72,0.00,,,0.00,WUHU216HW,2013-07-06 02:35:00,
2013-07-05 19:40:00,62.5,53.3,29.61,West,270,5.4,7.2,72,0.00,,,0.00,WUHU216HW,2013-07-06 02:40:00,
2013-07-05 20:00:00,60.8,52.2,29.61,WNW,293,5.4,5.4,73,0.00,,,0.00,WUHU216HW,2013-07-06 03:00:00,
2013-07-05 20:05:00,60.7,52.0,29.61,West,270,2.7,5.4,73,0.00,,,0.00,WUHU216HW,2013-07-06 03:05:00,
2013-07-05 20:10:00,60.7,52.0,29.61,West,270,2.7,5.4,73,0.00,,,0.00,WUHU216HW,2013-07-06 03:10:00,
2013-07-05 20:30:00,59.2,51.7,29.61,SSW,203,3.1,3.1,76,0.00,,,0.00,WUHU216HW,2013-07-06 03:30:00,
2013-07-05 20:35:00,59.2,51.7,29.61,SE,135,6.3,6.3,76,0.00,,,0.00,WUHU216HW,2013-07-06 03:35:00,
2013-07-05 20:40:00,59.2,51.7,29.61,SE,135,6.3,6.3,76,0.00,,,0.00,WUHU216HW,2013-07-06 03:40:00,
2013-07-05 21:00:00,58.5,51.3,29.61,WSW,248,2.0,2.0,77,0.00,,,0.00,WUHU216HW,2013-07-06 04:00:00,
2013-07-05 21:01:00,58.5,51.3,29.61,SSW,203,0.4,2.0,77,0.00,,,0.00,WUHU216HW,2013-07-06 04:01:00,
2013-07-05 21:06:00,58.5,51.3,29.61,SSW,203,0.4,2.0,77,0.00,,,0.00,WUHU216HW,2013-07-06 04:06:00,
2013-07-05 21:30:00,58.1,51.3,29.62,West,270,4.0,4.0,78,0.00,,,0.00,WUHU216HW,2013-07-06 04:30:00,
2013-07-05 21:35:00,58.1,51.7,29.62,WNW,293,1.8,4.0,79,0.00,,,0.00,WUHU216HW,2013-07-06 04:35:00,
2013-07-05 21:40:00,58.1,51.7,29.62,WNW,293,1.8,1.8,79,0.00,,,0.00,WUHU216HW,2013-07-06 04:40:00,
2013-07-05 22:00:00,58.0,51.5,29.63,WSW,248,1.1,1.1,79,0.00,,,0.00,WUHU216HW,2013-07-06 05:00:00,
2013-07-05 22:05:00,58.0,51.5,29.63,SSW,203,0.4,1.1,79,0.00,,,0.00,WUHU216HW,2013-07-06 05:05:00,
2013-07-05 22:10:00,58.0,51.5,29.63,SSW,203,0.4,0.4,79,0.00,,,0.00,WUHU216HW,2013-07-06 05:10:00,
2013-07-05 22:30:00,57.6,51.1,29.63,SSW,203,3.1,3.1,79,0.00,,,0.00,WUHU216HW,2013-07-06 05:30:00,
2013-07-05 22:35:00,57.6,51.1,29.63,South,180,3.8,6.3,79,0.00,,,0.00,WUHU216HW,2013-07-06 05:35:00,
2013-07-05 22:40:00,57.6,51.1,29.63,South,180,3.8,6.3,79,0.00,,,0.00,WUHU216HW,2013-07-06 05:40:00,
2013-07-05 23:00:00,57.6,51.5,29.63,WSW,248,4.0,4.0,80,0.00,,,0.00,WUHU216HW,2013-07-06 06:00:00,
2013-07-05 23:05:00,57.4,51.3,29.63,SSE,158,3.8,4.0,80,0.00,,,0.00,WUHU216HW,2013-07-06 06:05:00,
2013-07-05 23:10:00,57.4,51.3,29.63,SSE,158,3.8,4.0,80,0.00,,,0.00,WUHU216HW,2013-07-06 06:10:00,
2013-07-05 23:30:00,57.2,51.5,29.62,SSW,203,2.5,2.5,81,0.00,,,0.00,WUHU216HW,2013-07-06 06:30:00,
2013-07-05 23:35:00,57.2,51.5,29.62,SSW,203,2.5,2.5,81,0.00,,,0.00,WUHU216HW,2013-07-06 06:35:00,
2013-07-05 23:40:00,57.2,51.5,29.62,SSW,203,2.5,2.5,81,0.00,,,0.00,WUHU216HW,2013-07-06 06:40:00,